Location: Isles
(48.9125°N, 2.8272°E)
Time: 10:39:17
(UTC+00:00)

Cosmos 540 Rocket - Pass Details

Date: 03 February 2023
Orbit: 740 x 751 km, 74.1° (Epoch: 29 March)

Event Time Altitude Azimuth Distance (km) Brightness Sun altitude
Rises 18:31:01 0° 335° (NNW) 3,208 7.0 -16.9°
Reaches altitude 10° 18:33:24 10° 334° (NNW) 2,278 6.2 -17.3°
Maximum altitude 18:38:32 73° 251° (WSW) 785 3.7 -18.2°
Drops below altitude 10° 18:43:37 10° 167° (SSE) 2,253 5.8 -19.0°
Sets 18:45:58 0° 165° (SSE) 3,171 6.6 -19.4°
